Location: Duac?
(36.9744°N, 30.6500°E)
Time: 15:15:00
(UTC+00:00)

Cosmos 1867 - Pass Details

Date: 05 August 2024
Orbit: 772 x 802 km, 65.0° (Epoch: 11 September)

Event Time Altitude Azimuth Distance (km) Brightness Sun altitude
Rises 19:32:26 0° 337° (NNW) 3,317 8.0 -25.6°
Reaches altitude 10° 19:35:04 10° 346° (NNW) 2,382 6.9 -26.0°
Maximum altitude 19:40:07 37° 53° (NE) 1,237 4.5 -26.6°
Enters shadow 19:40:16 36° 57° (ENE) 1,238 4.5 -26.6°
